Tracking 30009 objects as of 7-Dec-2024
HD Live streaming from Space Station
objects crossing your sky now

STARLINK-31906

Track STARLINK-31906 now!
10-day predictions
STARLINK-31906 is classified as:


NORAD ID: 59842
Int'l Code: 2024-097H
Perigee: 450.1 km
Apogee: 452.3 km
Inclination: 43.0 °
Period: 93.5 minutes
Semi major axis: 6822 km
RCS: Unknown
Launch date: May 23, 2024
Source: United States (US)
Launch site: AIR FORCE EASTERN TEST RANGE (AFETR)
Your satellite tracking list
Your tracking list is empty




NASA's NSSDC Master Catalog

Two Line Element Set (TLE):
1 59842U 24097H   24342.06077996  .00001564  00000-0  44710-4 0  9995
2 59842  43.0058 349.6106 0001640 292.0600  68.0082 15.40698274 31823
Source of the keplerian elements: AFSPC